Mount Juliet, Tennessee, United States (37121)
Lat: 36.20N, Lon: 86.52W
Wx Zone: TNZ028
Local Info
Past Weather Observations for Today

NOTE: This archive is for the closest National Weather Service station to Mount Juliet. Information may differ from the station used for current weather conditions.

Click here for Long-term Archive

Time Weather Temperature Dewpoint Humidity Pressure Winds Precip Visibility
21:21
Mostly Cloudy
81°F / 27°C 73°F / 23°C 79% 30.01 in
(1016 mb)
SW 16.1 mph
(SW 26 kph)
- 10SM
20:53
Overcast
Thunder Storms
81°F / 27°C 73°F / 23°C 79% 29.98 in
(1015 mb)
SW 3.5 mph
(SW 6 kph)
- 10SM
20:30
Overcast
Thunder Storms
82°F / 28°C 73°F / 23°C 74% 29.98 in
(1015 mb)
NW 4.6 mph
(NW 7 kph)
- 10SM
19:53
Mostly Cloudy
82°F / 28°C 73°F / 23°C 74% 29.98 in
(1015 mb)
Variable 3.5 mph
(Variable 6 kph)
- 10SM
18:53
Partly Cloudy
82°F / 28°C 73°F / 23°C 74% 29.95 in
(1014 mb)
SSW 3.5 mph
(SSW 6 kph)
- 10SM
17:53
Partly Cloudy
84°F / 29°C 72°F / 22°C 66% 29.95 in
(1014 mb)
SSW 3.5 mph
(SSW 6 kph)
- 10SM
16:53
Mostly Cloudy
84°F / 29°C 72°F / 22°C 66% 29.95 in
(1014 mb)
W 6.9 mph
(W 11 kph)
0.00 in
(0.00 mm)
10SM
15:53
Mostly Cloudy
86°F / 30°C 72°F / 22°C 62% 29.95 in
(1014 mb)
SW 6.9 mph
(SW 11 kph)
- 10SM
14:53
Mostly Cloudy
88°F / 31°C 72°F / 22°C 59% 29.95 in
(1014 mb)
SW 11.5 mph
(SW 19 kph)
- 10SM
13:53
Mostly Cloudy
88°F / 31°C 72°F / 22°C 59% 29.95 in
(1014 mb)
SSW 6.9 mph
(SSW 11 kph)
- 10SM
12:53
Partly Cloudy
88°F / 31°C 72°F / 22°C 59% 29.98 in
(1015 mb)
SSW 12.7 mph
(SSW 20 kph)
- 10SM
11:53
Partly Cloudy
88°F / 31°C 73°F / 23°C 62% 29.98 in
(1015 mb)
SSW 6.9 mph
(SSW 11 kph)
- 10SM
10:53
Mostly Cloudy
Partly Cloudy
84°F / 29°C 72°F / 22°C 66% 29.98 in
(1015 mb)
SW 8.1 mph
(SW 13 kph)
- 10SM
09:53
Mostly Cloudy
Partly Cloudy
84°F / 29°C 73°F / 23°C 70% 30.01 in
(1016 mb)
SW 8.1 mph
(SW 13 kph)
- 10SM
08:53
Mostly Cloudy
81°F / 27°C 73°F / 23°C 79% 30.01 in
(1016 mb)
S 11.5 mph
(S 19 kph)
- 10SM
08:14
Overcast
81°F / 27°C 73°F / 23°C 79% 30.01 in
(1016 mb)
S 8.1 mph
(S 13 kph)
- 10SM
07:53
Overcast
81°F / 27°C 73°F / 23°C 79% 30.01 in
(1016 mb)
SSE 8.1 mph
(SSE 13 kph)
- 10SM
07:16
Mostly Cloudy
79°F / 26°C 73°F / 23°C 84% 29.98 in
(1015 mb)
S 8.1 mph
(S 13 kph)
- 9SM
06:53
Mostly Cloudy
79°F / 26°C 73°F / 23°C 84% 29.98 in
(1015 mb)
S 11.5 mph
(S 19 kph)
- 8SM
06:42
Mostly Cloudy
79°F / 26°C 73°F / 23°C 84% 29.98 in
(1015 mb)
S 9.2 mph
(S 15 kph)
- 8SM
06:30
Mostly Cloudy
79°F / 26°C 73°F / 23°C 84% 29.98 in
(1015 mb)
S 8.1 mph
(S 13 kph)
- 8SM
06:03
Mostly Cloudy
Fog And Mist
77°F / 25°C 73°F / 23°C 89% 29.98 in
(1015 mb)
S 5.8 mph
(S 9 kph)
- 6SM
05:53
Mostly Cloudy
77°F / 25°C 73°F / 23°C 89% 29.98 in
(1015 mb)
S 5.8 mph
(S 9 kph)
- 7SM
04:53
Overcast
77°F / 25°C 73°F / 23°C 89% 29.98 in
(1015 mb)
Calm - 10SM
04:41
Overcast
77°F / 25°C 72°F / 22°C 83% 29.98 in
(1015 mb)
Calm - 10SM
03:53
Mostly Cloudy
77°F / 25°C 73°F / 23°C 89% 29.98 in
(1015 mb)
SW 3.5 mph
(SW 6 kph)
- 9SM
03:40
Mostly Cloudy
79°F / 26°C 73°F / 23°C 84% 29.98 in
(1015 mb)
Calm - 10SM
03:14
Overcast
79°F / 26°C 73°F / 23°C 84% 29.98 in
(1015 mb)
Calm - 10SM
02:53
Overcast
79°F / 26°C 73°F / 23°C 84% 29.98 in
(1015 mb)
Calm - 10SM
01:53
Overcast
79°F / 26°C 73°F / 23°C 84% 29.98 in
(1015 mb)
Variable 4.6 mph
(Variable 7 kph)
- 10SM
00:53
Overcast
77°F / 25°C 73°F / 23°C 89% 29.95 in
(1014 mb)
SW 5.8 mph
(SW 9 kph)
- 10SM
Time Weather Temperature Dewpoint Humidity Pressure Winds Precip Visibility


Weather for websites

WeatherForYou.com, LLC is not responsible for any damages or problems caused by this service. Current weather conditions are obtained from the closest station including government and personal stations which may have varying degrees of accuracy. Weather forecasts are derived from the NOAA NDFD. Like all things, this site belongs to Jesus Christ... He just trusts us to maintain it. If you have any questions or comments email webmaster@weatherforyou.com

Copyright © 2016, WeatherForYou.com LLC. All rights reserved.